| time (UTC) | temp F | wind direction | speed MPH | gust MPH | rain 1hr in | rain 24hr in | rain mn in | humidity % | barometer mb |
| 20260831225730 | 102 | 240 | 9.0 | 21.0 | 0.00 | 0.00 | 0.00 | 22 | 1012.5 |
| 20260831225226 | 102 | 260 | 14.0 | 20.0 | 0.00 | 0.00 | 0.00 | 23 | 1012.4 |
| 20260831224720 | 102 | 241 | 10.0 | 15.0 | 0.00 | 0.00 | 0.00 | 22 | 1012.3 |
| 20260831224216 | 102 | 237 | 7.0 | 20.0 | 0.00 | 0.00 | 0.00 | 23 | 1012.5 |
| 20260831223711 | 103 | 250 | 15.0 | 19.0 | 0.00 | 0.00 | 0.00 | 22 | 1012.3 |
| 20260831223208 | 104 | 255 | 9.0 | 15.0 | 0.00 | 0.00 | 0.00 | 22 | 1012.5 |
| 20260831222703 | 102 | 254 | 13.0 | 17.0 | 0.00 | 0.00 | 0.00 | 23 | 1012.6 |
| 20260831222158 | 102 | 250 | 14.0 | 20.0 | 0.00 | 0.00 | 0.00 | 22 | 1012.6 |
| 20260831221653 | 102 | 260 | 8.0 | 17.0 | 0.00 | 0.00 | 0.00 | 23 | 1012.7 |
| 20260831221149 | 104 | 260 | 11.0 | 17.0 | 0.00 | 0.00 | 0.00 | 22 | 1012.9 |
| 20260831220638 | 103 | 220 | 11.0 | 19.0 | 0.00 | 0.00 | 0.00 | 22 | 1012.9 |
| 20260831220133 | 104 | 257 | 11.0 | 22.0 | 0.00 | 0.00 | 0.00 | 22 | 1012.9 |
| 20260831215629 | 105 | 243 | 8.0 | 11.0 | 0.00 | 0.00 | 0.00 | 22 | 1012.9 |
| 20260831215124 | 105 | 327 | 4.0 | 7.0 | 0.00 | 0.00 | 0.00 | 21 | 1013.0 |
| 20260831214622 | 104 | 325 | 4.0 | 7.0 | 0.00 | 0.00 | 0.00 | 22 | 1013.1 |
| 20260831214118 | 105 | 301 | 6.0 | 12.0 | 0.00 | 0.00 | 0.00 | 22 | 1013.2 |
| 20260831213614 | 103 | 248 | 7.0 | 12.0 | 0.00 | 0.00 | 0.00 | 22 | 1013.3 |
| 20260831213109 | 103 | 245 | 8.0 | 10.0 | 0.00 | 0.00 | 0.00 | 22 | 1013.3 |
| 20260831212605 | 104 | 281 | 6.0 | 15.0 | 0.00 | 0.00 | 0.00 | 22 | 1013.5 |
| 20260831212101 | 104 | 236 | 10.0 | 16.0 | 0.00 | 0.00 | 0.00 | 22 | 1013.6 |
| 20260831211555 | 104 | 215 | 8.0 | 15.0 | 0.00 | 0.00 | 0.00 | 23 | 1013.4 |
| 20260831211054 | 104 | 235 | 5.0 | 13.0 | 0.00 | 0.00 | 0.00 | 22 | 1013.8 |
| 20260831210549 | 103 | 231 | 4.0 | 15.0 | 0.00 | 0.00 | 0.00 | 23 | 1013.7 |
| 20260831210046 | 104 | 220 | 9.0 | 20.0 | 0.00 | 0.00 | 0.00 | 22 | 1013.8 |
| 20260831205545 | 103 | 244 | 6.0 | 15.0 | 0.00 | 0.00 | 0.00 | 22 | 1013.8 |
| 20260831205041 | 104 | 219 | 8.0 | 15.0 | 0.00 | 0.00 | 0.00 | 21 | 1013.8 |
| 20260831204536 | 104 | 199 | 4.0 | 15.0 | 0.00 | 0.00 | 0.00 | 21 | 1014.0 |
| 20260831204034 | 104 | 228 | 9.0 | 15.0 | 0.00 | 0.00 | 0.00 | 21 | 1013.9 |
| 20260831203529 | 102 | 266 | 8.0 | 16.0 | 0.00 | 0.00 | 0.00 | 22 | 1014.0 |
| 20260831203028 | 103 | 240 | 7.0 | 17.0 | 0.00 | 0.00 | 0.00 | 21 | 1013.9 |
| 20260831202522 | 102 | 237 | 11.0 | 15.0 | 0.00 | 0.00 | 0.00 | 22 | 1014.0 |
| 20260831202021 | 103 | 240 | 9.0 | 15.0 | 0.00 | 0.00 | 0.00 | 21 | 1014.1 |
| 20260831201520 | 102 | 234 | 9.0 | 16.0 | 0.00 | 0.00 | 0.00 | 21 | 1014.0 |
| 20260831201016 | 103 | 218 | 15.0 | 18.0 | 0.00 | 0.00 | 0.00 | 21 | 1014.1 |
| 20260831200512 | 103 | 224 | 7.0 | 13.0 | 0.00 | 0.00 | 0.00 | 21 | 1014.3 |
| 20260831200006 | 102 | 229 | 7.0 | 19.0 | 0.00 | 0.00 | 0.00 | 22 | 1014.3 |
| 20260831195501 | 103 | 225 | 6.0 | 15.0 | 0.00 | 0.00 | 0.00 | 22 | 1014.3 |
| 20260831195000 | 102 | 236 | 5.0 | 17.0 | 0.00 | 0.00 | 0.00 | 22 | 1014.3 |
| 20260831194456 | 102 | 236 | 6.0 | 16.0 | 0.00 | 0.00 | 0.00 | 22 | 1014.3 |
| 20260831193951 | 103 | 233 | 4.0 | 14.0 | 0.00 | 0.00 | 0.00 | 21 | 1014.4 |
| 20260831193446 | 103 | 164 | 8.0 | 17.0 | 0.00 | 0.00 | 0.00 | 21 | 1014.4 |
| 20260831192941 | 103 | 229 | 8.0 | 19.0 | 0.00 | 0.00 | 0.00 | 22 | 1014.6 |
| 20260831192436 | 102 | 203 | 6.0 | 12.0 | 0.00 | 0.00 | 0.00 | 22 | 1014.7 |
| 20260831191931 | 103 | 188 | 5.0 | 9.0 | 0.00 | 0.00 | 0.00 | 21 | 1014.5 |
| 20260831191427 | 102 | 184 | 6.0 | 13.0 | 0.00 | 0.00 | 0.00 | 21 | 1014.7 |
| 20260831190923 | 102 | 199 | 6.0 | 10.0 | 0.00 | 0.00 | 0.00 | 21 | 1014.6 |
| 20260831190418 | 102 | 183 | 8.0 | 13.0 | 0.00 | 0.00 | 0.00 | 21 | 1014.8 |
| 20260831185917 | 102 | 226 | 6.0 | 8.0 | 0.00 | 0.00 | 0.00 | 21 | 1014.7 |
| 20260831185413 | 102 | 234 | 4.0 | 12.0 | 0.00 | 0.00 | 0.00 | 21 | 1014.7 |
| 20260831184913 | 102 | 245 | 5.0 | 9.0 | 0.00 | 0.00 | 0.00 | 21 | 1014.8 |
| 20260831184408 | 101 | 228 | 3.0 | 6.0 | 0.00 | 0.00 | 0.00 | 21 | 1015.1 |
| 20260831183903 | 100 | 76 | 2.0 | 8.0 | 0.00 | 0.00 | 0.00 | 21 | 1015.1 |
| 20260831183402 | 100 | 126 | 0.0 | 8.0 | 0.00 | 0.00 | 0.00 | 21 | 1015.0 |
| 20260831182901 | 102 | 21 | 2.0 | 6.0 | 0.00 | 0.00 | 0.00 | 20 | 1015.1 |
| 20260831182357 | 101 | 328 | 5.0 | 5.0 | 0.00 | 0.00 | 0.00 | 21 | 1015.0 |
| 20260831181852 | 100 | 331 | 6.0 | 6.0 | 0.00 | 0.00 | 0.00 | 21 | 1015.2 |
| 20260831181348 | 100 | 75 | 2.0 | 4.0 | 0.00 | 0.00 | 0.00 | 22 | 1015.1 |
| 20260831180842 | 101 | 337 | 1.0 | 3.0 | 0.00 | 0.00 | 0.00 | 21 | 1015.3 |
| 20260831180337 | 99 | 110 | 1.0 | 2.0 | 0.00 | 0.00 | 0.00 | 21 | 1015.3 |
| 20260831175835 | 100 | 68 | 3.0 | 4.0 | 0.00 | 0.00 | 0.00 | 20 | 1015.3 |
| 20260831175332 | 98 | 328 | 2.0 | 4.0 | 0.00 | 0.00 | 0.00 | 21 | 1015.4 |
| 20260831174828 | 100 | 58 | 2.0 | 3.0 | 0.00 | 0.00 | 0.00 | 20 | 1015.4 |
| 20260831174323 | 99 | 349 | 0.0 | 3.0 | 0.00 | 0.00 | 0.00 | 20 | 1015.5 |
| 20260831173822 | 99 | 84 | 4.0 | 4.0 | 0.00 | 0.00 | 0.00 | 19 | 1015.6 |
| 20260831173316 | 98 | 112 | 2.0 | 4.0 | 0.00 | 0.00 | 0.00 | 19 | 1015.4 |
| 20260831172812 | 98 | 98 | 5.0 | 5.0 | 0.00 | 0.00 | 0.00 | 18 | 1015.5 |
| 20260831172307 | 99 | 58 | 1.0 | 3.0 | 0.00 | 0.00 | 0.00 | 18 | 1015.5 |
| 20260831171802 | 96 | 40 | 2.0 | 4.0 | 0.00 | 0.00 | 0.00 | 19 | 1015.4 |
| 20260831171259 | 97 | 63 | 3.0 | 4.0 | 0.00 | 0.00 | 0.00 | 19 | 1015.6 |
| 20260831170755 | 98 | 40 | 2.0 | 3.0 | 0.00 | 0.00 | 0.00 | 19 | 1015.6 |
| 20260831170251 | 98 | 87 | 4.0 | 4.0 | 0.00 | 0.00 | 0.00 | 18 | 1015.5 |
| 20260831165748 | 98 | 226 | 1.0 | 2.0 | 0.00 | 0.00 | 0.00 | 18 | 1015.4 |
| 20260831165244 | 97 | 53 | 3.0 | 3.0 | 0.00 | 0.00 | 0.00 | 17 | 1015.3 |
| 20260831164739 | 95 | 290 | 0.0 | 5.0 | 0.00 | 0.00 | 0.00 | 18 | 1015.6 |
| 20260831164235 | 95 | 280 | 3.0 | 5.0 | 0.00 | 0.00 | 0.00 | 18 | 1015.5 |
| 20260831163730 | 97 | 195 | 3.0 | 3.0 | 0.00 | 0.00 | 0.00 | 17 | 1015.4 |
| 20260831163226 | 97 | 253 | 0.0 | 1.0 | 0.00 | 0.00 | 0.00 | 16 | 1015.3 |
| 20260831162724 | 96 | 65 | 1.0 | 4.0 | 0.00 | 0.00 | 0.00 | 17 | 1015.4 |
| 20260831162224 | 96 | 35 | 0.0 | 2.0 | 0.00 | 0.00 | 0.00 | 17 | 1015.4 |
| 20260831161719 | 96 | 94 | 2.0 | 4.0 | 0.00 | 0.00 | 0.00 | 16 | 1015.3 |
| 20260831161215 | 95 | 91 | 2.0 | 4.0 | 0.00 | 0.00 | 0.00 | 17 | 1015.5 |
| 20260831160714 | 95 | 230 | 0.0 | 2.0 | 0.00 | 0.00 | 0.00 | 17 | 1015.5 |
| 20260831160204 | 95 | 125 | 2.0 | 2.0 | 0.00 | 0.00 | 0.00 | 17 | 1015.4 |
| 20260831155703 | 93 | 300 | 0.0 | 3.0 | 0.00 | 0.00 | 0.00 | 17 | 1015.4 |
| 20260831155159 | 95 | 102 | 0.0 | 3.0 | 0.00 | 0.00 | 0.00 | 16 | 1015.5 |
| 20260831154655 | 95 | 157 | 2.0 | 2.0 | 0.00 | 0.00 | 0.00 | 16 | 1015.3 |
| 20260831154150 | 94 | 281 | 0.0 | 2.0 | 0.00 | 0.00 | 0.00 | 16 | 1015.3 |
| 20260831153649 | 93 | 199 | 0.0 | 2.0 | 0.00 | 0.00 | 0.00 | 17 | 1015.4 |
| 20260831153146 | 94 | 150 | 0.0 | 2.0 | 0.00 | 0.00 | 0.00 | 16 | 1015.4 |
| 20260831152641 | 94 | 68 | 0.0 | 2.0 | 0.00 | 0.00 | 0.00 | 17 | 1015.2 |
| 20260831152137 | 93 | 297 | 0.0 | 3.0 | 0.00 | 0.00 | 0.00 | 17 | 1015.3 |
| 20260831151637 | 93 | 89 | 1.0 | 2.0 | 0.00 | 0.00 | 0.00 | 17 | 1015.2 |
| 20260831151131 | 92 | 14 | 0.0 | 2.0 | 0.00 | 0.00 | 0.00 | 17 | 1015.3 |
| 20260831150626 | 91 | 68 | 1.0 | 2.0 | 0.00 | 0.00 | 0.00 | 18 | 1015.5 |
| 20260831150121 | 91 | 221 | 0.0 | 2.0 | 0.00 | 0.00 | 0.00 | 18 | 1015.2 |
| 20260831145615 | 89 | 116 | 1.0 | 2.0 | 0.00 | 0.00 | 0.00 | 19 | 1015.3 |
| 20260831145112 | 89 | 185 | 0.0 | 2.0 | 0.00 | 0.00 | 0.00 | 19 | 1015.4 |
| 20260831144608 | 88 | 216 | 0.0 | 2.0 | 0.00 | 0.00 | 0.00 | 20 | 1015.2 |
| 20260831144103 | 87 | 256 | 1.0 | 2.0 | 0.00 | 0.00 | 0.00 | 20 | 1015.1 |
| 20260831143602 | 86 | 256 | 2.0 | 2.0 | 0.00 | 0.00 | 0.00 | 21 | 1015.3 |
| 20260831143058 | 85 | 358 | 1.0 | 1.0 | 0.00 | 0.00 | 0.00 | 22 | 1015.0 |
| 20260831142554 | 84 | 89 | 0.0 | 2.0 | 0.00 | 0.00 | 0.00 | 22 | 1015.0 |
| 20260831142050 | 82 | 269 | 0.0 | 2.0 | 0.00 | 0.00 | 0.00 | 23 | 1014.7 |
| 20260831141548 | 81 | 92 | 1.0 | 2.0 | 0.00 | 0.00 | 0.00 | 24 | 1014.9 |
| 20260831141044 | 80 | 323 | 2.0 | 2.0 | 0.00 | 0.00 | 0.00 | 24 | 1014.7 |
| 20260831140543 | 79 | 282 | 1.0 | 2.0 | 0.00 | 0.00 | 0.00 | 24 | 1014.8 |
| 20260831140037 | 79 | 298 | 0.0 | 1.0 | 0.00 | 0.00 | 0.00 | 24 | 1014.7 |
| 20260831135535 | 78 | 259 | 0.0 | 2.0 | 0.00 | 0.00 | 0.00 | 24 | 1014.6 |
| 20260831135030 | 79 | 230 | 1.0 | 2.0 | 0.00 | 0.00 | 0.00 | 24 | 1014.4 |
| 20260831134526 | 79 | 301 | 0.0 | 1.0 | 0.00 | 0.00 | 0.00 | 25 | 1014.4 |
| 20260831134021 | 78 | 278 | 0.0 | 1.0 | 0.00 | 0.00 | 0.00 | 24 | 1014.1 |
| 20260831133516 | 77 | 245 | 0.0 | 2.0 | 0.00 | 0.00 | 0.00 | 25 | 1014.3 |
| 20260831133011 | 77 | 319 | 1.0 | 2.0 | 0.00 | 0.00 | 0.00 | 24 | 1014.3 |
| 20260831132507 | 77 | 102 | 0.0 | 2.0 | 0.00 | 0.00 | 0.00 | 25 | 1014.2 |
| 20260831132005 | 78 | 151 | 1.0 | 3.0 | 0.00 | 0.00 | 0.00 | 24 | 1014.2 |
| 20260831131500 | 77 | 179 | 2.0 | 3.0 | 0.00 | 0.00 | 0.00 | 24 | 1014.1 |
| 20260831130956 | 77 | 209 | 2.0 | 3.0 | 0.00 | 0.00 | 0.00 | 25 | 1014.2 |
| 20260831130451 | 78 | 96 | 0.0 | 2.0 | 0.00 | 0.00 | 0.00 | 25 | 1014.1 |
| 20260831125950 | 78 | 253 | 0.0 | 2.0 | 0.00 | 0.00 | 0.00 | 24 | 1014.2 |
| 20260831125445 | 78 | 170 | 1.0 | 2.0 | 0.00 | 0.00 | 0.00 | 25 | 1014.1 |
| 20260831124941 | 77 | 200 | 1.0 | 2.0 | 0.00 | 0.00 | 0.00 | 25 | 1014.1 |
| 20260831124437 | 78 | 205 | 1.0 | 2.0 | 0.00 | 0.00 | 0.00 | 25 | 1014.0 |
| 20260831123933 | 78 | 168 | 0.0 | 2.0 | 0.00 | 0.00 | 0.00 | 25 | 1013.9 |
| 20260831123431 | 78 | 251 | 2.0 | 3.0 | 0.00 | 0.00 | 0.00 | 25 | 1014.0 |
| 20260831122926 | 80 | 237 | 0.0 | 2.0 | 0.00 | 0.00 | 0.00 | 24 | 1013.8 |
| 20260831122421 | 80 | 172 | 1.0 | 1.0 | 0.00 | 0.00 | 0.00 | 24 | 1013.9 |
| 20260831121916 | 79 | 170 | 1.0 | 2.0 | 0.00 | 0.00 | 0.00 | 25 | 1013.7 |
| 20260831121412 | 79 | 233 | 0.0 | 2.0 | 0.00 | 0.00 | 0.00 | 25 | 1013.7 |
| 20260831120908 | 79 | 181 | 2.0 | 4.0 | 0.00 | 0.00 | 0.00 | 24 | 1014.0 |
| 20260831120402 | 77 | 211 | 1.0 | 3.0 | 0.00 | 0.00 | 0.00 | 25 | 1013.6 |
| 20260831115856 | 78 | 165 | 0.0 | 2.0 | 0.00 | 0.00 | 0.00 | 25 | 1013.7 |
| 20260831115353 | 79 | 195 | 2.0 | 3.0 | 0.00 | 0.00 | 0.00 | 25 | 1013.7 |
| 20260831114852 | 79 | 257 | 1.0 | 2.0 | 0.00 | 0.00 | 0.00 | 25 | 1013.8 |
| 20260831114351 | 81 | 211 | 4.0 | 4.0 | 0.00 | 0.00 | 0.00 | 24 | 1013.9 |
| 20260831113848 | 81 | 119 | 0.0 | 2.0 | 0.00 | 0.00 | 0.00 | 24 | 1013.7 |
| 20260831113347 | 81 | 149 | 2.0 | 2.0 | 0.00 | 0.00 | 0.00 | 24 | 1013.6 |
| 20260831112841 | 80 | 228 | 1.0 | 2.0 | 0.00 | 0.00 | 0.00 | 25 | 1013.7 |
| 20260831112336 | 80 | 217 | 0.0 | 2.0 | 0.00 | 0.00 | 0.00 | 25 | 1013.7 |
| 20260831111831 | 80 | 49 | 0.0 | 2.0 | 0.00 | 0.00 | 0.00 | 25 | 1013.7 |
| 20260831111323 | 81 | 249 | 0.0 | 1.0 | 0.00 | 0.00 | 0.00 | 25 | 1013.7 |
| 20260831110818 | 82 | 135 | 1.0 | 2.0 | 0.00 | 0.00 | 0.00 | 24 | 1013.7 |
| 20260831110318 | 82 | 130 | 0.0 | 2.0 | 0.00 | 0.00 | 0.00 | 24 | 1013.7 |
| 20260831105811 | 82 | 309 | 0.0 | 1.0 | 0.00 | 0.00 | 0.00 | 24 | 1013.7 |
| 20260831105307 | 83 | 122 | 0.0 | 2.0 | 0.00 | 0.00 | 0.00 | 23 | 1013.7 |
| 20260831104807 | 82 | 179 | 1.0 | 2.0 | 0.00 | 0.00 | 0.00 | 24 | 1013.6 |
| 20260831104303 | 84 | 78 | 0.0 | 2.0 | 0.00 | 0.00 | 0.00 | 24 | 1013.5 |
| 20260831103758 | 82 | 102 | 2.0 | 3.0 | 0.00 | 0.00 | 0.00 | 24 | 1013.5 |
| 20260831103254 | 82 | 195 | 0.0 | 1.0 | 0.00 | 0.00 | 0.00 | 25 | 1013.7 |
| 20260831102753 | 83 | 70 | 1.0 | 2.0 | 0.00 | 0.00 | 0.00 | 24 | 1013.4 |
| 20260831102248 | 83 | 207 | 0.0 | 2.0 | 0.00 | 0.00 | 0.00 | 24 | 1013.2 |
| 20260831101744 | 84 | 88 | 1.0 | 3.0 | 0.00 | 0.00 | 0.00 | 24 | 1013.5 |
| 20260831101239 | 85 | 191 | 0.0 | 2.0 | 0.00 | 0.00 | 0.00 | 22 | 1013.3 |
| 20260831100735 | 84 | 169 | 1.0 | 3.0 | 0.00 | 0.00 | 0.00 | 21 | 1013.4 |
| 20260831100231 | 83 | 50 | 0.0 | 2.0 | 0.00 | 0.00 | 0.00 | 23 | 1013.4 |
| 20260831095729 | 83 | 205 | 0.0 | 2.0 | 0.00 | 0.00 | 0.00 | 24 | 1013.6 |
| 20260831095225 | 84 | 88 | 0.0 | 1.0 | 0.00 | 0.00 | 0.00 | 23 | 1013.3 |
| 20260831094725 | 84 | 168 | 2.0 | 3.0 | 0.00 | 0.00 | 0.00 | 24 | 1013.5 |
| 20260831094221 | 84 | 210 | 1.0 | 2.0 | 0.00 | 0.00 | 0.00 | 24 | 1013.5 |
| 20260831093717 | 86 | 342 | 1.0 | 4.0 | 0.00 | 0.00 | 0.00 | 21 | 1013.5 |
| 20260831093212 | 86 | 177 | 1.0 | 2.0 | 0.00 | 0.00 | 0.00 | 22 | 1013.5 |
| 20260831092708 | 86 | 106 | 0.0 | 2.0 | 0.00 | 0.00 | 0.00 | 20 | 1013.3 |
| 20260831092203 | 88 | 99 | 1.0 | 2.0 | 0.00 | 0.00 | 0.00 | 21 | 1013.2 |
| 20260831091703 | 86 | 185 | 0.0 | 1.0 | 0.00 | 0.00 | 0.00 | 23 | 1013.3 |
| 20260831091159 | 83 | 355 | 2.0 | 2.0 | 0.00 | 0.00 | 0.00 | 24 | 1013.4 |
| 20260831090659 | 85 | 289 | 1.0 | 2.0 | 0.00 | 0.00 | 0.00 | 23 | 1013.3 |
| 20260831090155 | 86 | 76 | 2.0 | 2.0 | 0.00 | 0.00 | 0.00 | 22 | 1013.3 |
| 20260831085651 | 86 | 64 | 2.0 | 2.0 | 0.00 | 0.00 | 0.00 | 22 | 1013.5 |
| 20260831085147 | 87 | 147 | 0.0 | 2.0 | 0.00 | 0.00 | 0.00 | 21 | 1013.6 |
| 20260831084642 | 87 | 266 | 0.0 | 2.0 | 0.00 | 0.00 | 0.00 | 23 | 1013.6 |
| 20260831084138 | 86 | 154 | 2.0 | 2.0 | 0.00 | 0.00 | 0.00 | 22 | 1013.5 |
| 20260831083634 | 85 | 63 | 0.0 | 2.0 | 0.00 | 0.00 | 0.00 | 24 | 1013.4 |
| 20260831083129 | 85 | 80 | 2.0 | 3.0 | 0.00 | 0.00 | 0.00 | 24 | 1013.4 |
| 20260831082627 | 85 | 299 | 0.0 | 3.0 | 0.00 | 0.00 | 0.00 | 24 | 1013.6 |
| 20260831082123 | 84 | 79 | 1.0 | 2.0 | 0.00 | 0.00 | 0.00 | 24 | 1013.5 |
| 20260831081618 | 85 | 63 | 0.0 | 2.0 | 0.00 | 0.00 | 0.00 | 24 | 1013.8 |
| 20260831081114 | 84 | 68 | 0.0 | 1.0 | 0.00 | 0.00 | 0.00 | 25 | 1013.5 |
| 20260831080609 | 84 | 269 | 0.0 | 1.0 | 0.00 | 0.00 | 0.00 | 26 | 1013.7 |
| 20260831080104 | 85 | 48 | 1.0 | 2.0 | 0.00 | 0.00 | 0.00 | 26 | 1013.6 |
| 20260831075600 | 86 | 63 | 2.0 | 2.0 | 0.00 | 0.00 | 0.00 | 25 | 1013.7 |
| 20260831075055 | 87 | 55 | 2.0 | 3.0 | 0.00 | 0.00 | 0.00 | 24 | 1013.8 |
| 20260831074554 | 87 | 100 | 0.0 | 1.0 | 0.00 | 0.00 | 0.00 | 24 | 1013.6 |
| 20260831074049 | 87 | 222 | 0.0 | 2.0 | 0.00 | 0.00 | 0.00 | 24 | 1013.7 |
| 20260831073544 | 87 | 255 | 1.0 | 3.0 | 0.00 | 0.00 | 0.00 | 23 | 1013.5 |
| 20260831073043 | 87 | 170 | 2.0 | 3.0 | 0.00 | 0.00 | 0.00 | 23 | 1013.6 |
| 20260831072539 | 87 | 237 | 1.0 | 1.0 | 0.00 | 0.00 | 0.00 | 23 | 1013.6 |
| 20260831072035 | 87 | 89 | 0.0 | 1.0 | 0.00 | 0.00 | 0.00 | 24 | 1013.7 |
| 20260831071534 | 87 | 223 | 0.0 | 1.0 | 0.00 | 0.00 | 0.00 | 23 | 1013.4 |
| 20260831071029 | 88 | 239 | 2.0 | 4.0 | 0.00 | 0.00 | 0.00 | 23 | 1013.5 |
| 20260831070528 | 88 | 251 | 1.0 | 3.0 | 0.00 | 0.00 | 0.00 | 23 | 1013.4 |
| 20260831070023 | 88 | 247 | 0.0 | 2.0 | 0.00 | 0.00 | 0.00 | 23 | 1013.6 |
| 20260831065521 | 89 | 59 | 1.0 | 2.0 | 0.00 | 0.00 | 0.00 | 23 | 1013.3 |
| 20260831065016 | 89 | 191 | 0.0 | 2.0 | 0.00 | 0.00 | 0.00 | 23 | 1013.4 |
| 20260831064511 | 90 | 284 | 0.0 | 2.0 | 0.00 | 0.00 | 0.00 | 23 | 1013.4 |
| 20260831064006 | 91 | 92 | 2.0 | 2.0 | 0.00 | 0.00 | 0.00 | 22 | 1013.3 |
| 20260831063501 | 92 | 332 | 2.0 | 3.0 | 0.00 | 0.00 | 0.00 | 21 | 1013.4 |
| 20260831062955 | 93 | 285 | 3.0 | 10.0 | 0.00 | 0.00 | 0.00 | 20 | 1013.4 |
| 20260831062451 | 92 | 260 | 7.0 | 9.0 | 0.00 | 0.00 | 0.00 | 20 | 1013.3 |
| 20260831061950 | 92 | 253 | 5.0 | 10.0 | 0.00 | 0.00 | 0.00 | 20 | 1013.2 |
| 20260831061448 | 92 | 268 | 5.0 | 10.0 | 0.00 | 0.00 | 0.00 | 20 | 1013.2 |
| 20260831060945 | 93 | 238 | 7.0 | 13.0 | 0.00 | 0.00 | 0.00 | 20 | 1013.2 |
| 20260831060439 | 92 | 272 | 5.0 | 13.0 | 0.00 | 0.00 | 0.00 | 20 | 1013.1 |
| 20260831055938 | 92 | 287 | 6.0 | 15.0 | 0.00 | 0.00 | 0.00 | 20 | 1013.1 |
| 20260831055433 | 92 | 285 | 6.0 | 11.0 | 0.00 | 0.00 | 0.00 | 20 | 1013.1 |
| 20260831054929 | 93 | 287 | 11.0 | 19.0 | 0.00 | 0.00 | 0.00 | 20 | 1013.1 |
| 20260831054424 | 93 | 268 | 12.0 | 15.0 | 0.00 | 0.00 | 0.00 | 20 | 1013.4 |
| 20260831053923 | 93 | 293 | 7.0 | 11.0 | 0.00 | 0.00 | 0.00 | 20 | 1013.2 |
| 20260831053421 | 93 | 288 | 8.0 | 15.0 | 0.00 | 0.00 | 0.00 | 20 | 1013.3 |
| 20260831052916 | 93 | 300 | 9.0 | 17.0 | 0.00 | 0.00 | 0.00 | 20 | 1013.1 |
| 20260831052415 | 93 | 324 | 16.0 | 17.0 | 0.00 | 0.00 | 0.00 | 20 | 1013.2 |
| 20260831051914 | 93 | 312 | 12.0 | 15.0 | 0.00 | 0.00 | 0.00 | 20 | 1013.3 |
| 20260831051412 | 93 | 287 | 7.0 | 13.0 | 0.00 | 0.00 | 0.00 | 21 | 1013.2 |
| 20260831050908 | 93 | 253 | 6.0 | 12.0 | 0.00 | 0.00 | 0.00 | 21 | 1013.2 |
| 20260831050402 | 93 | 240 | 6.0 | 15.0 | 0.00 | 0.00 | 0.00 | 20 | 1013.2 |
| 20260831045901 | 93 | 301 | 4.0 | 16.0 | 0.00 | 0.00 | 0.00 | 21 | 1013.1 |
| 20260831045355 | 93 | 303 | 10.0 | 14.0 | 0.00 | 0.00 | 0.00 | 21 | 1013.0 |
| 20260831044850 | 93 | 277 | 14.0 | 17.0 | 0.00 | 0.00 | 0.00 | 21 | 1013.1 |
| 20260831044350 | 93 | 287 | 14.0 | 20.0 | 0.00 | 0.00 | 0.00 | 21 | 1012.9 |
| 20260831043847 | 93 | 303 | 6.0 | 19.0 | 0.00 | 0.00 | 0.00 | 21 | 1013.3 |
| 20260831043346 | 93 | 260 | 9.0 | 20.0 | 0.00 | 0.00 | 0.00 | 21 | 1012.9 |
| 20260831042841 | 93 | 288 | 6.0 | 15.0 | 0.00 | 0.00 | 0.00 | 22 | 1013.3 |
| 20260831042340 | 93 | 324 | 5.0 | 12.0 | 0.00 | 0.00 | 0.00 | 22 | 1013.0 |
| 20260831041836 | 94 | 295 | 14.0 | 19.0 | 0.00 | 0.00 | 0.00 | 22 | 1013.0 |
| 20260831041335 | 93 | 345 | 12.0 | 18.0 | 0.00 | 0.00 | 0.00 | 23 | 1013.0 |
| 20260831040830 | 94 | 23 | 3.0 | 19.0 | 0.00 | 0.00 | 0.00 | 22 | 1013.0 |
| 20260831040329 | 93 | 324 | 11.0 | 16.0 | 0.00 | 0.00 | 0.00 | 23 | 1012.8 |
| 20260831035828 | 93 | 306 | 16.0 | 18.0 | 0.00 | 0.00 | 0.00 | 24 | 1012.6 |
| 20260831035327 | 94 | 299 | 13.0 | 16.0 | 0.00 | 0.00 | 0.00 | 23 | 1012.7 |
| 20260831034822 | 94 | 281 | 6.0 | 9.0 | 0.00 | 0.00 | 0.00 | 23 | 1012.5 |
| 20260831034317 | 94 | 289 | 5.0 | 15.0 | 0.00 | 0.00 | 0.00 | 22 | 1012.6 |
| 20260831033812 | 94 | 313 | 10.0 | 15.0 | 0.00 | 0.00 | 0.00 | 23 | 1012.4 |
| 20260831033307 | 95 | 287 | 5.0 | 15.0 | 0.00 | 0.00 | 0.00 | 22 | 1012.4 |
| 20260831032803 | 95 | 280 | 7.0 | 11.0 | 0.00 | 0.00 | 0.00 | 22 | 1012.3 |
| 20260831032257 | 94 | 301 | 7.0 | 18.0 | 0.00 | 0.00 | 0.00 | 22 | 1012.1 |
| 20260831031752 | 94 | 280 | 4.0 | 10.0 | 0.00 | 0.00 | 0.00 | 23 | 1012.0 |
| 20260831031251 | 94 | 308 | 7.0 | 13.0 | 0.00 | 0.00 | 0.00 | 23 | 1011.7 |
| 20260831030746 | 94 | 326 | 9.0 | 12.0 | 0.00 | 0.00 | 0.00 | 24 | 1012.0 |
| 20260831030244 | 94 | 315 | 6.0 | 11.0 | 0.00 | 0.00 | 0.00 | 24 | 1011.7 |
| 20260831025744 | 94 | 252 | 11.0 | 22.0 | 0.00 | 0.00 | 0.00 | 23 | 1011.7 |
| 20260831025238 | 94 | 296 | 6.0 | 14.0 | 0.00 | 0.00 | 0.00 | 24 | 1011.8 |
| 20260831024735 | 95 | 274 | 10.0 | 17.0 | 0.00 | 0.00 | 0.00 | 23 | 1011.7 |
| 20260831024233 | 95 | 306 | 6.0 | 9.0 | 0.00 | 0.00 | 0.00 | 25 | 1012.0 |
| 20260831023732 | 95 | 301 | 13.0 | 17.0 | 0.00 | 0.00 | 0.00 | 26 | 1012.0 |
| 20260831023231 | 95 | 293 | 11.0 | 22.0 | 0.00 | 0.00 | 0.00 | 25 | 1011.5 |
| 20260831022726 | 95 | 289 | 11.0 | 20.0 | 0.00 | 0.00 | 0.00 | 25 | 1011.5 |
| 20260831022221 | 95 | 292 | 9.0 | 20.0 | 0.00 | 0.00 | 0.00 | 26 | 1011.7 |
| 20260831021720 | 95 | 295 | 10.0 | 19.0 | 0.00 | 0.00 | 0.00 | 27 | 1011.7 |
| 20260831021215 | 95 | 273 | 9.0 | 22.0 | 0.00 | 0.00 | 0.00 | 27 | 1011.5 |
| 20260831020712 | 96 | 261 | 11.0 | 17.0 | 0.00 | 0.00 | 0.00 | 26 | 1011.3 |
| 20260831020211 | 96 | 273 | 9.0 | 22.0 | 0.00 | 0.00 | 0.00 | 26 | 1011.2 |
| 20260831015706 | 96 | 243 | 19.0 | 24.0 | 0.00 | 0.00 | 0.00 | 25 | 1011.0 |
| 20260831015201 | 96 | 265 | 13.0 | 23.0 | 0.00 | 0.00 | 0.00 | 25 | 1011.1 |
| 20260831014656 | 96 | 271 | 11.0 | 23.0 | 0.00 | 0.00 | 0.00 | 24 | 1010.9 |
| 20260831014151 | 97 | 310 | 14.0 | 19.0 | 0.00 | 0.00 | 0.00 | 23 | 1011.0 |
| 20260831013647 | 97 | 281 | 8.0 | 19.0 | 0.00 | 0.00 | 0.00 | 23 | 1010.5 |
| 20260831013147 | 97 | 292 | 8.0 | 20.0 | 0.00 | 0.00 | 0.00 | 23 | 1010.9 |
| 20260831012642 | 98 | 264 | 10.0 | 13.0 | 0.00 | 0.00 | 0.00 | 23 | 1010.7 |
| 20260831012137 | 98 | 274 | 11.0 | 19.0 | 0.00 | 0.00 | 0.00 | 23 | 1010.8 |
| 20260831011636 | 98 | 293 | 6.0 | 17.0 | 0.00 | 0.00 | 0.00 | 23 | 1010.8 |
| 20260831011132 | 99 | 326 | 8.0 | 10.0 | 0.00 | 0.00 | 0.00 | 23 | 1011.0 |
| 20260831010627 | 101 | 261 | 9.0 | 14.0 | 0.00 | 0.00 | 0.00 | 23 | 1010.6 |
| 20260831010122 | 101 | 287 | 6.0 | 18.0 | 0.00 | 0.00 | 0.00 | 23 | 1010.8 |
| 20260831005617 | 101 | 250 | 8.0 | 12.0 | 0.00 | 0.00 | 0.00 | 22 | 1010.7 |
| 20260831005112 | 102 | 258 | 7.0 | 11.0 | 0.00 | 0.00 | 0.00 | 22 | 1010.8 |
| 20260831004608 | 103 | 248 | 6.0 | 15.0 | 0.00 | 0.00 | 0.00 | 22 | 1010.6 |
| 20260831004103 | 103 | 238 | 7.0 | 9.0 | 0.00 | 0.00 | 0.00 | 22 | 1010.7 |
| 20260831003600 | 102 | 262 | 8.0 | 19.0 | 0.00 | 0.00 | 0.00 | 22 | 1010.7 |
| 20260831003055 | 103 | 243 | 15.0 | 23.0 | 0.00 | 0.00 | 0.00 | 22 | 1010.7 |
| 20260831002554 | 103 | 327 | 6.0 | 15.0 | 0.00 | 0.00 | 0.00 | 22 | 1010.7 |
| 20260831002049 | 103 | 290 | 8.0 | 18.0 | 0.00 | 0.00 | 0.00 | 21 | 1010.8 |
| 20260831001544 | 104 | 242 | 17.0 | 23.0 | 0.00 | 0.00 | 0.00 | 21 | 1010.8 |
| 20260831001041 | 104 | 275 | 9.0 | 21.0 | 0.00 | 0.00 | 0.00 | 21 | 1010.7 |
| 20260831000537 | 104 | 248 | 9.0 | 14.0 | 0.00 | 0.00 | 0.00 | 21 | 1010.6 |
| 20260831000036 | 104 | 260 | 7.0 | 14.0 | 0.00 | 0.00 | 0.00 | 21 | 1010.8 |
| 20260830235535 | 104 | 255 | 19.0 | 21.0 | 0.00 | 0.00 | 0.00 | 21 | 1010.8 |
| 20260830235030 | 104 | 249 | 14.0 | 22.0 | 0.00 | 0.00 | 0.00 | 21 | 1010.7 |
| 20260830234525 | 106 | 272 | 9.0 | 13.0 | 0.00 | 0.00 | 0.00 | 20 | 1010.8 |
| 20260830234020 | 105 | 238 | 9.0 | 19.0 | 0.00 | 0.00 | 0.00 | 21 | 1010.7 |
| 20260830233515 | 105 | 260 | 8.0 | 17.0 | 0.00 | 0.00 | 0.00 | 21 | 1010.9 |
| 20260830233012 | 105 | 253 | 16.0 | 23.0 | 0.00 | 0.00 | 0.00 | 21 | 1010.8 |
| 20260830232508 | 105 | 264 | 7.0 | 18.0 | 0.00 | 0.00 | 0.00 | 21 | 1010.9 |
| 20260830232004 | 105 | 247 | 12.0 | 19.0 | 0.00 | 0.00 | 0.00 | 20 | 1010.8 |
| 20260830231459 | 105 | 246 | 15.0 | 17.0 | 0.00 | 0.00 | 0.00 | 20 | 1011.0 |
| 20260830230958 | 106 | 250 | 5.0 | 17.0 | 0.00 | 0.00 | 0.00 | 20 | 1010.9 |
| 20260830230454 | 106 | 261 | 9.0 | 15.0 | 0.00 | 0.00 | 0.00 | 21 | 1011.0 |